Weather History for Crossville, TN

Change the Weather History Date:

Thursday, March 21, 2013

  Actual Average Record
Temperature  
Mean Temperature 27 °F 49 °F  
Max Temperature 37 °F 59 °F 77 °F (1966)
Min Temperature 17 °F 38 °F 9 °F (1965)
Degree Days  
Heating Degree Days 38    
Month to date heating degree days 515  
Since 1 July heating degree days 3652  
Cooling Degree Days 0    
Month to date cooling degree days 0  
Year to date cooling degree days 0  
Moisture  
Dew Point 11 °F    
Average Humidity 55    
Maximum Humidity 74    
Minimum Humidity 35    
Precipitation  
Precipitation 0.00 in 0.16 in 3.37 in (1955)
Month to date precipitation 3.47 3.24  
Year to date precipitation 13.02 12.46  
Sea Level Pressure  
Sea Level Pressure 30.00 in    
Wind  
Wind Speed 6 mph (NW)    
Max Wind Speed 17 mph    
Max Gust Speed 23 mph    
Visibility 10 miles    
Events      
T = Trace of Precipitation, MM = Missing Value Source: NWS Daily Summary

Daily Weather History Graph

Daily Weather History Graph

Search for Another Location

Airport:

Trip Planner

Search our weather history database for the weather conditions in past years. The results will help you decide how hot, cold, wet, or windy it might be!

Date:

Astronomy

Mar. 21, 2013 Rise Set
Actual Time 6:42 AM CDT 6:53 PM CDT
Civil Twilight 6:16 AM CDT 7:18 PM CDT
Nautical Twilight 5:46 AM CDT 7:48 PM CDT
Astronomical Twilight 5:16 AM CDT 8:19 PM CDT
Moon 1:31 PM CDT (3/21) 2:54 AM CDT (3/21)
Length of Visible Light 13h 02m
Length of Day
12h 11m
Waxing Gibbous, 69% of the Moon is Illuminated
Mar 21
Waxing Gibbous
Mar 27
Full
Apr 2
Last Quarter
Apr 10
New
Apr 18
First Quarter

Hourly Weather History & Observations

Time (CDT) Temp. Windchill Dew Point Humidity Pressure Visibility Wind Dir Wind Speed Gust Speed Precip Events Conditions
1:53 AM 23.0 °F 14.7 °F 10.9 °F 60% 29.99 in 10.0 mi NW 6.9 mph - N/A   Clear
2:53 AM 21.9 °F 13.4 °F 10.9 °F 63% 29.98 in 10.0 mi NW 6.9 mph - N/A   Clear
3:53 AM 19.9 °F 14.9 °F 12.0 °F 71% 29.98 in 10.0 mi North 3.5 mph - N/A   Partly Cloudy
4:53 AM 19.0 °F 12.3 °F 10.9 °F 71% 29.97 in 10.0 mi NW 4.6 mph - N/A   Clear
5:53 AM 18.0 °F - 10.0 °F 71% 29.98 in 10.0 mi Calm Calm - N/A   Clear
6:53 AM 17.1 °F 11.7 °F 9.0 °F 71% 29.99 in 10.0 mi NW 3.5 mph - N/A   Clear
7:53 AM 21.0 °F 12.4 °F 10.0 °F 63% 30.00 in 10.0 mi NW 6.9 mph - N/A   Clear
8:53 AM 23.0 °F 12.4 °F 8.1 °F 53% 30.01 in 10.0 mi North 10.4 mph - N/A   Clear
9:53 AM 25.0 °F 13.6 °F 8.1 °F 49% 30.03 in 10.0 mi NNW 12.7 mph 19.6 mph N/A   Clear
10:53 AM 28.0 °F 19.3 °F 9.0 °F 45% 30.03 in 10.0 mi NW 9.2 mph - N/A   Clear
11:53 AM 30.0 °F 20.5 °F 10.0 °F 43% 30.01 in 10.0 mi West 11.5 mph 18.4 mph N/A   Partly Cloudy
12:53 PM 30.9 °F 23.5 °F 10.9 °F 43% 30.01 in 10.0 mi West 8.1 mph 18.4 mph N/A   Scattered Clouds
1:53 PM 33.1 °F 24.9 °F 10.0 °F 38% 29.99 in 10.0 mi WNW 10.4 mph 17.3 mph N/A   Clear
2:53 PM 35.1 °F 27.4 °F 10.0 °F 35% 29.98 in 10.0 mi NNW 10.4 mph 18.4 mph N/A   Clear
3:53 PM 36.0 °F 29.0 °F 10.0 °F 34% 29.98 in 10.0 mi West 9.2 mph 18.4 mph N/A   Clear
4:53 PM 35.1 °F 32.2 °F 10.0 °F 35% 29.97 in 10.0 mi Variable 3.5 mph - N/A   Clear
5:53 PM 35.1 °F 28.6 °F 10.9 °F 37% 29.97 in 10.0 mi NW 8.1 mph - N/A   Clear
6:53 PM 33.1 °F 28.7 °F 10.9 °F 40% 29.98 in 10.0 mi NW 4.6 mph - N/A   Clear
7:53 PM 30.9 °F - 12.0 °F 46% 29.99 in 10.0 mi Calm Calm - N/A   Clear
8:53 PM 30.0 °F 24.1 °F 14.0 °F 51% 29.99 in 10.0 mi NNE 5.8 mph - N/A   Clear
9:53 PM 27.0 °F - 14.0 °F 58% 30.03 in 10.0 mi Calm Calm - N/A   Clear
10:53 PM 28.0 °F 24.2 °F 12.9 °F 53% 30.02 in 10.0 mi North 3.5 mph - N/A   Clear
11:53 PM 27.0 °F 21.6 °F 14.0 °F 58% 30.01 in 10.0 mi NE 4.6 mph - N/A   Clear